Regional Weather Roundup
Issued by NWS

Home | Current Version | Previous Version | Graphics & Text | Print | Product List | Glossary On
Versions: 1 2 3 4 5 6 7 8 9 10 11 12 13 14 15 16 17 18 19 20 21 22 23 24 25 26 27 28 29 30 31 32 33 34 35 36 37 38 39 40 41 42 43 44 45 46 47 48 49 50
000
ASUS45 KPSR 262110
RWRAZ

ARIZONA HOURLY REGIONAL WEATHER ROUNDUP
NATIONAL WEATHER SERVICE PHOENIX AZ
200 PM MST FRI MAY 26 2017

NOTE: FAIR INDICATES FEW OR NO CLOUDS BELOW 12,000 FEET WITH NO
SIGNIFICANT WEATHER AND/OR OBSTRUCTIONS TO VISIBILITY.

AZZ001>003-036-262200-
NORTHWEST ARIZONA

CITY           SKY/WX    TMP DP  RH WIND       PRES   REMARKS
BULLHEAD CITY  SUNNY     90  25   9 S17G25    29.74F
KINGMAN        SUNNY     83  23  11 SW22G36   29.88S
$$

AZZ004>008-015-016-018-262200-
NORTH CENTRAL ARIZONA

CITY           SKY/WX    TMP DP  RH WIND       PRES   REMARKS
GRAND CANYON   SUNNY     72  23  16 SW17G37   30.01F
WILLIAMS       SUNNY     70  18  13 S20G30    30.05S
PRESCOTT       SUNNY     75  18  11 S14G22    30.00S
FLAGSTAFF      SUNNY     67  12  12 SW21G33   30.07F
PAYSON         SUNNY     77  21  12 S9G26     30.05S
PAGE           SUNNY     85  19   9 S14G21    29.79F
$$

AZZ009>014-017-262200-
NORTHEAST ARIZONA

CITY           SKY/WX    TMP DP  RH WIND       PRES   REMARKS
WINSLOW        SUNNY     83  10   6 SW14G30   29.94F
SAINT JOHNS    SUNNY     80  13   8 SW17G35   29.99F
WINDOW ROCK    SUNNY     75  13   9 SW28G36   30.03F
SHOW LOW       SUNNY     72   9   8 SW29G35   30.08S
$$

AZZ540-542>544-546-548-262200-
GREATER PHOENIX AREA

CITY           SKY/WX    TMP DP  RH WIND       PRES   REMARKS
PHOENIX        SUNNY     93  21   7 SW14G21   29.80F
BUCKEYE        SUNNY     90  25   9 S13G18    29.82F
GLENDALE       SUNNY     91  28  10 S15G23    29.83F
LUKE AFB       SUNNY     90  27  10 SW17G23   29.81S
DEER VALLEY    SUNNY     88  22   9 MISG      29.83F
SCOTTSDALE     SUNNY     90  24   9 MISG      29.84F
MESA-FALCON    SUNNY     91  25   9 SW9G20    29.83
MESA-GATEWAY   SUNNY     91  21   8 MISG      29.84S
CHANDLER       SUNNY     93  21   7 S9G25     29.82F
$$

AZZ539-553-262200-
SOUTHWEST MARICOPA COUNTY AND PINAL COUNTY

CITY           SKY/WX    TMP DP  RH WIND       PRES   REMARKS
CASA GRANDE    SUNNY     93  26   9 SW21G28   29.83F
GILA BEND      FAIR      92  31  11 SW6G21    29.80F
$$

AZZ503-504-507>509-262200-
SOUTHEAST ARIZONA

CITY           SKY/WX    TMP DP  RH WIND       PRES   REMARKS
TUCSON         SUNNY     95  19   6 SW20G31   29.90F
DAVIS-MONTHAN  SUNNY     93  20   7 SW21G26   29.89F
RYAN FIELD     SUNNY     93  19   7 SW24G35   29.89
NOGALES        SUNNY     89  24   9 S18G35    29.99F
SIERRA VISTA   SUNNY     86  18   8 SW22G32   30.04R
DOUGLAS        SUNNY     89  24   9 SW22G36   29.99F
SAFFORD        SUNNY     95  14   5 W24G36    29.86F
$$

AZZ532-262200-
SOUTHWEST ARIZONA

CITY           SKY/WX    TMP DP  RH WIND       PRES   REMARKS
YUMA           SUNNY     87  42  20 VRB6      29.81F
$$

CAZ041-043-047-048-061-525>527-560>570-262200-
SOUTHERN CALIFORNIA

CITY           SKY/WX    TMP DP  RH WIND       PRES   REMARKS
DOWNTOWN L.A.  CLOUDY    69  52  54 VRB6      29.99S
L.A. AIRPORT   PTSUNNY   67  54  63 SW12      30.00S
SAN DIEGO      PTSUNNY   70  51  51 W13       30.02S
BURBANK        CLOUDY    67  49  52 S12       29.99S
ONTARIO        MOSUNNY   73  45  36 SW13      29.97F
RIVERSIDE      MOSUNNY   72  46  39 CALM      29.97F
PALM SPRINGS   SUNNY     85  43  22 W6G21     29.82F
EL CENTRO NAS  SUNNY     88  33  14 VRB3      29.80F
IMPERIAL       LGT RAIN  88  39  17 SW7       29.79F
BLYTHE         SUNNY     90  29  11 SW13G23   29.79F
NEEDLES        SUNNY     93  28  10 S16G25    29.77F
$$

NVZ020-UTZ003-262200-
SOUTHERN NEVADA-UTAH

CITY           SKY/WX    TMP DP  RH WIND       PRES   REMARKS
LAS VEGAS      SUNNY     88  22   9 SE10      29.75F
SALT LAKE CITY MOSUNNY   67  33  28 NW12G21   29.89S
$$

NMZ009-TXZ055-262200-
NEW MEXICO-WEST TEXAS

CITY           SKY/WX    TMP DP  RH WIND       PRES   REMARKS
ALBUQUERQUE    MOSUNNY   81  13   7 NW5       29.94F
EL PASO        MOSUNNY   91  26   9 W23G30    29.94F
$$


........................KEY........................
SKY/WX - SKY CONDITION/WEATHER
TMP    - TEMPERATURE IN FAHRENHEIT
DP     - DEW POINT IN FAHRENHEIT
RH     - RELATIVE HUMIDITY IN PERCENT
WIND   - DIRECTION AND SPEED IN MILES PER HOUR (MPH)
VRB    - VARIABLE WIND DIRECTION
PRES   - MEAN SEA LEVEL PRESSURE IN INCHES OF MERCURY
         F - FALLING PRESSURE   R - RISING PRESSURE
         S - STEADY PRESSURE
VSB    - VISIBILITY IN MILES
HX     - HEAT INDEX IN FAHRENHEIT
WCI    - WIND CHILL INDEX IN FAHRENHEIT
TC     - TEMPERATURE IN CELSIUS WHICH IS ALSO KNOWN AS
         TEMPERATURE IN CENTIGRADE
AFB    - AIR FORCE BASE
         LUKE AFB IS LUKE AIR FORCE BASE
         DAVIS-MONTHAN IS DAVIS-MONTHAN AIR FORCE BASE
NAS    - NAVAL AIR STATION
         EL CENTRO NAS IS EL CENTRO NAVAL AIR STATION
N/A    - NOT AVAILABLE




USA.gov is the U.S. government's official web portal to all federal, state and local government web resources and services.